[[{"header":{"parameterUnit":"m.s-1","parameterCategory":1,"la1":30.2991,"la2":30.254,"lo1":-89.0895,"lo2":-89.0444,"dy":0.0017,"dx":0.0017,"nx":28,"ny":28,"refTime":"2024-07-26T03:00:00:Z","depth":0,"parameterNumber":2,"parameterNumberName":"U-component_of_WINDS"},"data":[0,0,0,0,0,0,0,0,0,0,0,0,0,0,0,0,0,0,0,0,0,0,0,0,0,0,0,0,0,0,0,0,0,0,0,0,0,0,0,0,0,0,0,0,0,0,0,0,0,0,0,0,0,0,0,0,0,0,-0.8495,-0.8495,0,-0.8499,-0.8499,-0.8499,-0.8457,-0.8456,-0.8455,-0.8454,-0.8464,-0.8465,-0.8466,0,0,0,0,0,0,0,0,0,0,0,0,0,-0.8458,-0.8459,-0.8495,-0.8495,-0.8496,-0.8499,-0.8499,-0.8499,-0.8458,-0.8456,-0.8455,-0.8454,-0.8463,-0.8465,-0.8466,0,0,0,0,0,0,0,0,0,0,0,0,0,-0.8469,-0.8459,-0.8495,-0.8475,-0.8473,-0.8499,-0.8499,-0.8499,-0.8458,-0.8456,-0.8455,-0.8453,-0.8463,-0.8465,-0.8467,-0.8513,0,0,-0.8473,-0.8473,0,0,0,0,0,0,0,0,-0.8469,-0.8471,-0.8478,-0.8477,-0.8475,-0.8476,-0.8489,-0.8504,-0.8458,-0.8464,-0.8454,-0.8452,-0.8469,-0.8471,-0.8475,-0.8514,-0.8514,-0.8473,-0.8474,-0.8475,-0.8475,0,0,0,0,0,0,0,-0.8468,-0.8471,-0.8497,-0.8478,-0.8476,-0.8467,-0.8467,-0.8492,-0.8477,-0.8463,-0.846,-0.8461,-0.8468,-0.8474,-0.8475,-0.8514,-0.8473,-0.8474,-0.8476,-0.8476,-0.8589,-0.8591,0,0,0,0,0,0,-0.8469,-0.847,-0.8497,-0.8497,-0.8467,-0.847,-0.8469,-0.8477,-0.8476,-0.8474,-0.8462,-0.8459,-0.8471,-0.8473,-0.8475,-0.8529,-0.8475,-0.8477,-0.8478,-0.8588,-0.859,-0.8592,0,0,0,0,0,0,-0.8469,-0.8472,-0.8497,-0.8483,-0.8485,-0.8472,-0.8481,-0.8478,-0.8483,-0.8475,-0.8473,-0.847,-0.847,-0.8473,-0.8503,-0.8529,-0.8478,-0.8479,-0.8585,-0.8588,-0.8591,-0.8638,0,0,0,0,0,0,-0.8468,-0.8472,-0.8489,-0.8483,-0.8486,-0.8523,-0.8483,-0.848,-0.8486,-0.8482,-0.8482,-0.8481,-0.8469,-0.8501,-0.8505,-0.8531,-0.8481,-0.8583,-0.8587,-0.859,-0.8634,-0.8642,-0.8648,0,0,0,0,0,-0.8467,-0.8504,-0.849,-0.8493,-0.8506,-0.8525,-0.8527,-0.851,-0.8488,-0.8506,-0.85,-0.8481,-0.8525,-0.8504,-0.8509,-0.8536,-0.8581,-0.8586,-0.859,-0.863,-0.864,-0.8648,0,0,0,0,0,0,-0.8516,-0.8503,-0.8487,-0.8523,-0.8525,-0.8518,-0.8539,-0.8521,-0.8531,-0.8527,-0.8508,-0.8508,-0.8542,-0.8542,-0.8519,-0.858,-0.855,-0.8555,-0.8579,-0.8588,-0.8595,-0.8595,-0.8483,0,0,0,0,0,-0.853,-0.8544,-0.8533,-0.8566,-0.8567,-0.8553,-0.8561,-0.8547,-0.855,-0.8551,-0.8548,-0.8552,-0.8567,-0.8577,-0.859,-0.8633,-0.8632,-0.8653,-0.8661,-0.8667,-0.8672,-0.8693,-0.8702,-0.8605,-0.8605,-0.8605,0,0,-0.8562,-0.8556,-0.8567,-0.8576,-0.8576,-0.8592,-0.8554,-0.8574,-0.8587,-0.8555,-0.8583,-0.858,-0.8584,-0.862,-0.8636,-0.8621,-0.8698,-0.8672,-0.8677,-0.8679,-0.8698,-0.8708,-0.8716,-0.8608,-0.8607,-0.8607,0,0,-0.8627,-0.8624,-0.865,-0.865,-0.8649,-0.8639,-0.8645,-0.864,-0.8636,-0.8663,-0.8639,-0.8654,-0.868,-0.8683,-0.8689,-0.8752,-0.8734,-0.8757,-0.8795,-0.8816,-0.8824,-0.8831,-0.8853,-0.8862,-0.8762,-0.8762,-0.8762,0,-0.8666,-0.8689,-0.8667,-0.8687,-0.8692,-0.866,-0.8687,-0.8689,-0.8694,-0.8698,-0.868,-0.871,-0.8711,-0.8747,-0.8762,-0.8767,-0.8774,-0.8757,-0.8824,-0.8831,-0.8837,-0.8858,-0.8867,-0.8764,-0.8764,-0.8764,-0.8764,0,-0.8737,-0.8753,-0.8775,-0.8776,-0.8783,-0.8808,-0.879,-0.88,-0.8786,-0.8778,-0.8805,-0.8804,-0.8816,-0.8823,-0.881,-0.8857,-0.8847,-0.8827,-0.8797,-0.8849,-0.8869,-0.8877,-0.8768,-0.8767,-0.8767,-0.8766,0,0,-0.8836,-0.8823,-0.8832,-0.8831,-0.8827,-0.8839,-0.8861,-0.887,-0.8879,-0.8883,-0.8901,-0.8922,-0.8903,-0.8908,-0.8896,-0.8914,-0.8964,-0.8891,-0.8891,-0.8905,-0.9015,-0.903,-0.904,-0.8951,-0.8952,-0.8954,-0.9014,0,-0.89,-0.8935,-0.8915,-0.8954,-0.8968,-0.8937,-0.8956,-0.8956,-0.8948,-0.896,-0.8953,-0.8968,-0.8941,-0.8944,-0.896,-0.8954,-0.8986,-0.8949,-0.897,-0.897,-0.897,-0.905,-0.9068,-0.9125,-0.9022,-0.9023,-0.9024,0,-0.8979,-0.8983,-0.9022,-0.9013,-0.9018,-0.9035,-0.9041,-0.9052,-0.9051,-0.9044,-0.9049,-0.9031,-0.9053,-0.9021,-0.9052,-0.9027,-0.9034,-0.9032,-0.9034,-0.9036,-0.9001,-0.9055,-0.9143,-0.9152,-0.9036,-0.9035,-0.9034,0,-0.9048,-0.9062,-0.9087,-0.9088,-0.9078,-0.9091,-0.9087,-0.9084,-0.909,-0.9096,-0.9099,-0.9108,-0.9113,-0.9121,-0.9106,-0.9084,-0.9138,-0.9105,-0.9134,-0.9134,-0.9148,-0.9148,-0.9239,-0.9151,-0.9151,-0.9151,-0.9151,0,-0.9121,-0.9147,-0.9117,-0.9133,-0.9161,-0.9137,-0.9165,-0.9159,-0.9156,-0.9171,-0.9145,-0.9159,-0.9138,-0.9151,-0.9139,-0.9166,-0.9168,-0.9164,-0.9161,-0.9167,-0.9168,-0.9172,-0.9168,-0.9153,-0.9153,-0.9152,-0.9152,0,-0.9203,-0.9185,-0.921,-0.9196,-0.9194,-0.9215,-0.9204,-0.9218,-0.9207,-0.9226,-0.9229,-0.9213,-0.9227,-0.9211,-0.9225,-0.9217,-0.9253,-0.9243,-0.9252,-0.925,-0.928,-0.9277,-0.9378,-0.939,-0.9294,-0.9295,-0.9295,0,-0.9252,-0.927,-0.9258,-0.9264,-0.9261,-0.9273,-0.9278,-0.9255,-0.9261,-0.926,-0.9275,-0.9285,-0.9292,-0.9315,-0.9306,-0.9315,-0.9306,-0.9341,-0.9308,-0.9313,-0.9307,-0.9307,-0.9308,-0.9348,-0.9349,-0.935,-0.9351,0,-0.9341,-0.933,-0.9336,-0.934,-0.9345,-0.9347,-0.9348,-0.9355,-0.9331,-0.934,-0.9351,-0.9356,-0.9368,-0.9379,-0.9385,-0.9383,-0.9364,-0.9361,-0.9368,-0.9375,-0.9379,-0.9377,-0.9271,-0.9359,-0.9358,-0.9358,-0.9357,-0.9357,-0.9408,-0.9422,-0.9415,-0.9423,-0.942,-0.942,-0.9432,-0.9421,-0.943,-0.9435,-0.9421,-0.9437,-0.9434,-0.9439,-0.9439,-0.9451,-0.9437,-0.9448,-0.945,-0.9453,-0.9458,-0.9376,-0.9453,-0.9452,-0.9452,-0.9452,-0.9452,0,-0.9496,-0.9488,-0.9496,-0.9495,-0.9501,-0.9478,-0.9477,-0.9485,-0.9497,-0.9495,-0.9501,-0.9514,-0.9524,-0.9514,-0.9522,-0.9533,-0.9525,-0.9536,-0.9536,-0.9536,-0.947,-0.9463,-0.9543,-0.9543,-0.9543,-0.9543,-0.9543,-0.9543,-0.9542,-0.9564,-0.9552,-0.9572,-0.9565,-0.9578,-0.9579,-0.9579,-0.9576,-0.9591,-0.9598,-0.959,-0.9585,-0.9591,-0.9599,-0.9596,-0.9601,-0.9616,-0.961,-0.9549,-0.9541,-0.9532,-0.9525,-0.9617,-0.9617,-0.9674,-0.9675,-0.9675]},{"header":{"parameterUnit":"m.s-1","parameterCategory":1,"la1":30.2991,"la2":30.254,"lo1":-89.0895,"lo2":-89.0444,"dy":0.0017,"dx":0.0017,"nx":28,"ny":28,"refTime":"2024-07-26T03:00:00:Z","depth":0,"parameterNumber":3,"parameterNumberName":"V-component_of_WINDS"},"data":[0,0,0,0,0,0,0,0,0,0,0,0,0,0,0,0,0,0,0,0,0,0,0,0,0,0,0,0,0,0,0,0,0,0,0,0,0,0,0,0,0,0,0,0,0,0,0,0,0,0,0,0,0,0,0,0,0,0,-2.982,-2.982,0,-2.9835,-2.9836,-2.9836,-2.9858,-2.9858,-2.9858,-2.9859,-2.9873,-2.9873,-2.9873,0,0,0,0,0,0,0,0,0,0,0,0,0,-2.9806,-2.9806,-2.982,-2.982,-2.982,-2.9835,-2.9836,-2.9836,-2.9857,-2.9858,-2.9858,-2.9859,-2.9873,-2.9873,-2.9873,0,0,0,0,0,0,0,0,0,0,0,0,0,-2.9816,-2.9806,-2.982,-2.9833,-2.9834,-2.9835,-2.9836,-2.9836,-2.9857,-2.9858,-2.9858,-2.9859,-2.9873,-2.9873,-2.9873,-2.9862,0,0,-2.9873,-2.9873,0,0,0,0,0,0,0,0,-2.9815,-2.9816,-2.9831,-2.9832,-2.9833,-2.9845,-2.9836,-2.9845,-2.9857,-2.9848,-2.9859,-2.9859,-2.9863,-2.9864,-2.9866,-2.9863,-2.9863,-2.9873,-2.9873,-2.9873,-2.9873,0,0,0,0,0,0,0,-2.9815,-2.9816,-2.9826,-2.9831,-2.9832,-2.9837,-2.9839,-2.9838,-2.9852,-2.9849,-2.9851,-2.9853,-2.9864,-2.9866,-2.9866,-2.9864,-2.9873,-2.9873,-2.9873,-2.9873,-2.9851,-2.985,0,0,0,0,0,0,-2.9812,-2.9815,-2.9825,-2.9826,-2.9826,-2.9837,-2.9839,-2.9841,-2.9852,-2.9855,-2.9852,-2.9854,-2.9865,-2.9866,-2.9867,-2.9853,-2.9873,-2.9873,-2.9873,-2.9851,-2.9851,-2.985,0,0,0,0,0,0,-2.9812,-2.9813,-2.9825,-2.9821,-2.9823,-2.9837,-2.9838,-2.9841,-2.9842,-2.9855,-2.9857,-2.9851,-2.9866,-2.9867,-2.9863,-2.9854,-2.9873,-2.9873,-2.9852,-2.9851,-2.985,-2.9827,0,0,0,0,0,0,-2.9811,-2.9813,-2.9809,-2.9821,-2.9823,-2.9821,-2.9838,-2.9841,-2.9843,-2.9845,-2.9854,-2.9857,-2.9866,-2.9863,-2.9863,-2.9855,-2.9873,-2.9853,-2.9852,-2.9851,-2.9829,-2.9825,-2.9823,0,0,0,0,0,-2.9811,-2.9802,-2.9809,-2.981,-2.9819,-2.9821,-2.9822,-2.9834,-2.9842,-2.9838,-2.9846,-2.9856,-2.9855,-2.9862,-2.9863,-2.9854,-2.9854,-2.9852,-2.9851,-2.983,-2.9826,-2.9823,0,0,0,0,0,0,-2.9788,-2.9804,-2.9812,-2.9807,-2.9812,-2.9824,-2.982,-2.9829,-2.9832,-2.9834,-2.9848,-2.985,-2.9844,-2.9849,-2.9856,-2.9843,-2.9856,-2.9855,-2.984,-2.9836,-2.9834,-2.9832,-2.9873,0,0,0,0,0,-2.9783,-2.9784,-2.9797,-2.9791,-2.9793,-2.9806,-2.9807,-2.9816,-2.9822,-2.9824,-2.9832,-2.9837,-2.9837,-2.9838,-2.9839,-2.983,-2.9831,-2.9824,-2.9821,-2.9819,-2.9817,-2.9811,-2.9807,-2.9845,-2.9845,-2.9845,0,0,-2.9772,-2.978,-2.9779,-2.9787,-2.9792,-2.9791,-2.9808,-2.9807,-2.9806,-2.9824,-2.982,-2.9826,-2.9832,-2.9826,-2.9823,-2.9829,-2.9807,-2.9817,-2.9815,-2.9814,-2.9809,-2.9805,-2.9802,-2.9844,-2.9845,-2.9845,0,0,-2.975,-2.9757,-2.9752,-2.9757,-2.9765,-2.9774,-2.9773,-2.9783,-2.9788,-2.9785,-2.9798,-2.9797,-2.9798,-2.9802,-2.9804,-2.9783,-2.9792,-2.9783,-2.9767,-2.9761,-2.9758,-2.9755,-2.9746,-2.9742,-2.9782,-2.9782,-2.9781,0,-2.9734,-2.9734,-2.9748,-2.9746,-2.9748,-2.9765,-2.9759,-2.9764,-2.9771,-2.9772,-2.978,-2.9781,-2.9787,-2.978,-2.9775,-2.9777,-2.9774,-2.9781,-2.9757,-2.9755,-2.9752,-2.9743,-2.974,-2.978,-2.978,-2.9781,-2.9781,0,-2.9714,-2.9714,-2.9709,-2.9716,-2.9718,-2.9714,-2.9726,-2.9726,-2.9735,-2.9742,-2.9738,-2.9745,-2.9748,-2.9747,-2.9756,-2.9741,-2.9745,-2.9755,-2.9767,-2.9747,-2.9739,-2.9736,-2.9778,-2.9779,-2.9779,-2.978,0,0,-2.9677,-2.9693,-2.969,-2.9693,-2.9703,-2.9703,-2.9699,-2.9702,-2.9701,-2.9706,-2.9702,-2.9703,-2.9712,-2.9714,-2.9723,-2.9718,-2.9698,-2.9728,-2.9728,-2.972,-2.9681,-2.9672,-2.9668,-2.9705,-2.9705,-2.9704,-2.9679,0,-2.9656,-2.9651,-2.9663,-2.9655,-2.9654,-2.967,-2.9667,-2.9672,-2.9679,-2.9678,-2.9686,-2.9685,-2.9698,-2.9699,-2.9695,-2.9702,-2.969,-2.9704,-2.97,-2.97,-2.9696,-2.9664,-2.9654,-2.963,-2.9676,-2.9676,-2.9676,0,-2.963,-2.9634,-2.9625,-2.9635,-2.9635,-2.9632,-2.9634,-2.9635,-2.964,-2.9645,-2.9648,-2.9658,-2.9654,-2.9668,-2.9661,-2.967,-2.967,-2.9673,-2.9672,-2.967,-2.9685,-2.9659,-2.9623,-2.9619,-2.9671,-2.9672,-2.9672,0,-2.9602,-2.9605,-2.96,-2.9602,-2.9614,-2.9611,-2.9615,-2.9622,-2.9622,-2.9625,-2.9625,-2.9627,-2.9628,-2.9628,-2.9639,-2.9648,-2.963,-2.9645,-2.9633,-2.9632,-2.9627,-2.9626,-2.9588,-2.963,-2.963,-2.963,-2.963,0,-2.9576,-2.9569,-2.9587,-2.9583,-2.9576,-2.9591,-2.9583,-2.9589,-2.9594,-2.9592,-2.9606,-2.9603,-2.9618,-2.9616,-2.9624,-2.9616,-2.9617,-2.962,-2.9622,-2.9617,-2.9617,-2.9615,-2.9616,-2.9629,-2.9629,-2.963,-2.963,0,-2.9542,-2.9554,-2.9549,-2.956,-2.9563,-2.9557,-2.9566,-2.9563,-2.9571,-2.9567,-2.9567,-2.9579,-2.9577,-2.9588,-2.9589,-2.9594,-2.9581,-2.9587,-2.9579,-2.958,-2.9566,-2.9566,-2.9524,-2.9518,-2.9566,-2.9565,-2.9565,0,-2.9524,-2.9519,-2.953,-2.9529,-2.9533,-2.9532,-2.9532,-2.9546,-2.9546,-2.9552,-2.9547,-2.9547,-2.9548,-2.9544,-2.9552,-2.9552,-2.9557,-2.9542,-2.9557,-2.9552,-2.9554,-2.9553,-2.9551,-2.9538,-2.9537,-2.9537,-2.9536,0,-2.9489,-2.9495,-2.9495,-2.9497,-2.9498,-2.95,-2.9504,-2.9502,-2.9517,-2.9516,-2.9515,-2.9515,-2.9515,-2.9514,-2.9516,-2.9519,-2.9529,-2.9532,-2.9529,-2.9523,-2.9517,-2.9518,-2.9568,-2.9532,-2.9533,-2.9533,-2.9533,-2.9534,-2.946,-2.9456,-2.9463,-2.9463,-2.9467,-2.9469,-2.9466,-2.9474,-2.9473,-2.9475,-2.9483,-2.948,-2.9485,-2.9488,-2.949,-2.9487,-2.9494,-2.949,-2.9488,-2.9487,-2.9483,-2.952,-2.9488,-2.9488,-2.9488,-2.9488,-2.9488,0,-2.9424,-2.9429,-2.9429,-2.9433,-2.9432,-2.9444,-2.9448,-2.9446,-2.9443,-2.9447,-2.9447,-2.9445,-2.9444,-2.9452,-2.9451,-2.9447,-2.9451,-2.9446,-2.9445,-2.9445,-2.9478,-2.948,-2.9442,-2.9442,-2.9442,-2.9442,-2.9442,-2.9442,-2.9405,-2.9398,-2.9405,-2.9399,-2.9405,-2.9402,-2.9403,-2.9404,-2.9408,-2.9404,-2.9404,-2.9409,-2.9414,-2.9414,-2.9413,-2.9416,-2.9413,-2.9406,-2.9409,-2.9439,-2.9444,-2.9448,-2.9449,-2.9406,-2.9406,-2.9377,-2.9377,-2.9376]}]]